Location: Bijele Vode
(45.2833°N, 16.2000°E)
Time: 16:33:22
(UTC+00:00)

Cosmos 1867 - Pass Details

Date: 18 September 2020
Orbit: 777 x 799 km, 65.0° (Epoch: 20 October)

Event Time Altitude Azimuth Distance (km) Brightness Sun altitude
Rises 18:27:05 0° 323° (NW) 3,313 7.8 -15.9°
Reaches altitude 10° 18:29:31 10° 323° (NW) 2,379 6.9 -16.3°
Maximum altitude 18:35:00 82° 237° (WSW) 810 3.6 -17.2°
Enters shadow 18:38:36 22° 151° (SSE) 1,678 4.8 -17.8°
